When you browse on this site, cookies collect data to enhance your experience and personalize the content and advertising you see.
Visit our Privacy Policy to learn more. By continuing to use the site, you agree to this use of cookies and data.
  • In Portugal
  • List of Countries
  • For 7 days
  • Water Temperature
  • Satellite Maps
  • Weather Map
  • Weather Widgets
  • user-avatar
    Login

    Hourly Weather Kowalowa

    Today, 22 February, Friday

    Time Temperature Precipitation Wind Pressure Humidity
    00:00 +2°C° 0.6 mm 3 mps 718 mmHg 95%
    01:00 +3°C° 0.6 mm 3 mps 718 mmHg 95%
    02:00 +3°C° 0.9 mm 3 mps 718 mmHg 96%
    03:00 +3°C° 0.9 mm 3 mps 718 mmHg 96%
    04:00 +3°C° 0.9 mm 3 mps 718 mmHg 97%
    05:00 +1°C° 0.5 mm 4 mps 719 mmHg 96%
    06:00 +1°C° 0.5 mm 5 mps 719 mmHg 95%
    07:00 -1°C° 0.5 mm 6 mps 720 mmHg 95%
    08:00 -2°C° 0.1 mm 6 mps 721 mmHg 92%
    09:00 -3°C° 0.1 mm 6 mps 723 mmHg 89%
    10:00 -4°C° 0.1 mm 6 mps 724 mmHg 87%
    11:00 -4°C° 0 mm 6 mps 724 mmHg 79%
    12:00 -4°C° 0 mm 6 mps 725 mmHg 71%
    13:00 -3°C° 0 mm 6 mps 726 mmHg 63%
    14:00 -4°C° 0 mm 5 mps 727 mmHg 61%
    15:00 -4°C° 0 mm 5 mps 727 mmHg 59%
    16:00 -5°C° 0 mm 5 mps 728 mmHg 57%
    17:00 -4°C° 0 mm 4 mps 728 mmHg 59%
    18:00 -5°C° 0 mm 4 mps 729 mmHg 62%
    19:00 -6°C° 0 mm 3 mps 729 mmHg 64%
    20:00 -7°C° 0 mm 3 mps 730 mmHg 64%
    21:00 -7°C° 0 mm 3 mps 731 mmHg 64%
    22:00 -7°C° 0 mm 3 mps 731 mmHg 64%
    23:00 -7°C° 0 mm 3 mps 731 mmHg 63%

    Tomorrow, 23 February, Saturday

    Time Temperature Precipitation Wind Pressure Humidity
    00:00 -7°C° 0 mm 2 mps 731 mmHg 63%
    01:00 -7°C° 0 mm 2 mps 731 mmHg 62%
    02:00 -7°C° 0 mm 2 mps 731 mmHg 62%
    03:00 -6°C° 0 mm 1 mps 731 mmHg 61%
    04:00 -6°C° 0 mm 1 mps 731 mmHg 60%
    05:00 -6°C° 0 mm 1 mps 731 mmHg 59%
    06:00 -6°C° 0 mm 1 mps 731 mmHg 59%
    07:00 -6°C° 0 mm 1 mps 731 mmHg 58%
    08:00 -4°C° 0 mm 1 mps 732 mmHg 50%
    09:00 -3°C° 0 mm 1 mps 732 mmHg 43%
    10:00 -2°C° 0 mm 1 mps 732 mmHg 35%
    11:00 -1°C° 0 mm 1 mps 732 mmHg 33%
    12:00 0°C° 0 mm 1 mps 732 mmHg 31%
    13:00 +1°C° 0 mm 1 mps 732 mmHg 29%
    14:00 +1°C° 0 mm 1 mps 732 mmHg 31%
    15:00 +1°C° 0 mm 1 mps 731 mmHg 33%
    16:00 +1°C° 0 mm 1 mps 731 mmHg 35%
    17:00 0°C° 0 mm 1 mps 731 mmHg 39%
    18:00 -1°C° 0 mm 1 mps 730 mmHg 43%
    19:00 -2°C° 0 mm 1 mps 730 mmHg 47%
    20:00 -2°C° 0 mm 1 mps 730 mmHg 46%
    21:00 -2°C° 0 mm 1 mps 730 mmHg 45%
    22:00 -2°C° 0 mm 1 mps 730 mmHg 45%
    23:00 -2°C° 0 mm 1 mps 730 mmHg 43%

    Day after tomorrow, 24 February, Sunday

    Time Temperature Precipitation Wind Pressure Humidity
    00:00 -2°C° 0 mm 1 mps 730 mmHg 42%
    01:00 -1°C° 0 mm 1 mps 730 mmHg 40%
    02:00 -1°C° 0 mm 1 mps 730 mmHg 40%
    03:00 -1°C° 0 mm 1 mps 729 mmHg 40%
    04:00 -2°C° 0 mm 0 mps 729 mmHg 40%
    05:00 -2°C° 0 mm 0 mps 729 mmHg 40%
    06:00 -2°C° 0 mm 0 mps 729 mmHg 40%
    07:00 -2°C° 0 mm 0 mps 729 mmHg 40%
    08:00 -1°C° 0 mm 0 mps 730 mmHg 38%
    09:00 +2°C° 0 mm 1 mps 730 mmHg 36%
    10:00 +4°C° 0 mm 1 mps 730 mmHg 34%
    11:00 +5°C° 0 mm 1 mps 730 mmHg 36%
    12:00 +6°C° 0 mm 1 mps 730 mmHg 37%
    13:00 +7°C° 0 mm 1 mps 730 mmHg 38%
    14:00 +7°C° 0 mm 1 mps 730 mmHg 45%
    15:00 +6°C° 0 mm 1 mps 730 mmHg 51%
    16:00 +6°C° 0 mm 1 mps 729 mmHg 57%
    17:00 +5°C° 0 mm 1 mps 729 mmHg 59%
    18:00 +3°C° 0 mm 1 mps 729 mmHg 62%
    19:00 +2°C° 0 mm 1 mps 729 mmHg 64%
    20:00 +2°C° 0 mm 1 mps 729 mmHg 64%
    21:00 +2°C° 0 mm 1 mps 729 mmHg 64%
    22:00 +2°C° 0 mm 1 mps 730 mmHg 65%
    23:00 +2°C° 0 mm 1 mps 730 mmHg 64%

    25 February, Monday

    Time Temperature Precipitation Wind Pressure Humidity
    00:00 +2°C° 0 mm 1 mps 730 mmHg 64%
    01:00 +2°C° 0 mm 1 mps 730 mmHg 64%
    02:00 +2°C° 0 mm 1 mps 730 mmHg 64%
    03:00 +2°C° 0 mm 1 mps 730 mmHg 64%
    04:00 +2°C° 0 mm 1 mps 729 mmHg 64%
    05:00 +2°C° 0 mm 1 mps 729 mmHg 65%
    06:00 +2°C° 0 mm 1 mps 729 mmHg 65%
    07:00 +2°C° 0 mm 1 mps 730 mmHg 65%
    08:00 +4°C° 0 mm 1 mps 730 mmHg 62%
    09:00 +5°C° 0 mm 1 mps 730 mmHg 59%
    10:00 +6°C° 0 mm 2 mps 730 mmHg 56%
    11:00 +7°C° 0 mm 2 mps 730 mmHg 56%
    12:00 +8°C° 0 mm 2 mps 730 mmHg 55%
    13:00 +9°C° 0 mm 2 mps 730 mmHg 55%
    14:00 +8°C° 0 mm 2 mps 730 mmHg 58%
    15:00 +8°C° 0 mm 2 mps 729 mmHg 61%
    16:00 +9°C° 0 mm 1 mps 729 mmHg 65%
    17:00 +7°C° 0 mm 1 mps 729 mmHg 68%
    18:00 +6°C° 0 mm 1 mps 729 mmHg 71%
    19:00 +4°C° 0 mm 1 mps 728 mmHg 75%
    20:00 +4°C° 0 mm 1 mps 728 mmHg 75%
    21:00 +4°C° 0 mm 1 mps 728 mmHg 75%
    22:00 +4°C° 0 mm 1 mps 728 mmHg 76%
    23:00 +4°C° 0 mm 1 mps 728 mmHg 75%

    26 February, Tuesday

    Time Temperature Precipitation Wind Pressure Humidity
    00:00 +4°C° 0 mm 1 mps 727 mmHg 75%
    01:00 +4°C° 0 mm 1 mps 727 mmHg 74%
    02:00 +4°C° 0 mm 1 mps 727 mmHg 75%
    03:00 +3°C° 0 mm 1 mps 726 mmHg 75%
    04:00 +2°C° 0 mm 2 mps 726 mmHg 76%
    05:00 +2°C° 0 mm 2 mps 726 mmHg 77%
    06:00 +2°C° 0 mm 2 mps 726 mmHg 79%
    07:00 +2°C° 0 mm 2 mps 726 mmHg 80%
    08:00 +4°C° 0 mm 2 mps 726 mmHg 74%
    09:00 +6°C° 0 mm 2 mps 726 mmHg 68%
    10:00 +7°C° 0 mm 3 mps 726 mmHg 61%
    11:00 +8°C° 0 mm 3 mps 726 mmHg 57%
    12:00 +9°C° 0 mm 3 mps 725 mmHg 52%
    13:00 +10°C° 0 mm 4 mps 725 mmHg 48%
    14:00 +9°C° 0 mm 3 mps 725 mmHg 54%
    15:00 +9°C° 0 mm 3 mps 725 mmHg 59%
    16:00 +8°C° 0 mm 3 mps 724 mmHg 65%
    17:00 +7°C° 0 mm 3 mps 724 mmHg 70%
    18:00 +6°C° 0 mm 2 mps 725 mmHg 76%
    19:00 +5°C° 0 mm 2 mps 725 mmHg 81%
    20:00 +5°C° 0 mm 2 mps 725 mmHg 85%
    21:00 +4°C° 0 mm 2 mps 725 mmHg 88%
    22:00 +4°C° 0 mm 1 mps 724 mmHg 91%
    23:00 +4°C° 0 mm 1 mps 724 mmHg 92%

    27 February, Wednesday

    Time Temperature Precipitation Wind Pressure Humidity
    00:00 +3°C° 0 mm 1 mps 724 mmHg 92%
    01:00 +3°C° 0 mm 1 mps 724 mmHg 93%
    02:00 +3°C° 0 mm 1 mps 724 mmHg 90%
    03:00 +3°C° 0 mm 1 mps 724 mmHg 88%
    04:00 +2°C° 0 mm 1 mps 723 mmHg 85%
    05:00 +2°C° 0 mm 1 mps 723 mmHg 81%
    06:00 +2°C° 0 mm 1 mps 723 mmHg 76%
    07:00 +2°C° 0 mm 1 mps 723 mmHg 72%
    08:00 +4°C° 0 mm 1 mps 723 mmHg 64%
    09:00 +6°C° 0 mm 1 mps 723 mmHg 57%
    10:00 +8°C° 0 mm 1 mps 724 mmHg 49%
    11:00 +9°C° 0 mm 1 mps 723 mmHg 47%
    12:00 +9°C° 0 mm 2 mps 723 mmHg 46%
    13:00 +10°C° 0 mm 2 mps 722 mmHg 44%
    14:00 +10°C° 0 mm 2 mps 722 mmHg 51%
    15:00 +10°C° 0 mm 2 mps 721 mmHg 58%
    16:00 +10°C° 0 mm 2 mps 720 mmHg 65%
    17:00 +9°C° 0 mm 2 mps 720 mmHg 73%
    18:00 +7°C° 0 mm 2 mps 719 mmHg 80%
    19:00 +6°C° 0 mm 2 mps 718 mmHg 88%
    20:00 +6°C° 0 mm 2 mps 718 mmHg 89%
    21:00 +5°C° 0 mm 2 mps 717 mmHg 90%
    22:00 +5°C° 0 mm 2 mps 717 mmHg 90%
    23:00 +4°C° 0 mm 3 mps 717 mmHg 89%
    Show more